User: anonymous   Login
Location: Iesi
(43.5167°N, 13.2333°E)
Time: 18:41:25
(UTC+00:00)
Language:

Intercosmos 25 - Orbit

View from above orbital plane
View from above orbital plane
View from above satellite
View from above satellite

Ground track
Ground track

The orbit data is extracted from the following two-line orbital elements,

1 21819U 91086A   20295.93604181  .00000265  00000-0  50460-4 0  9997
2 21819  82.5908  50.5724 1515979   2.5983 358.1916 12.05146868259541
Epoch (UTC): 21 October 2020 22:27:54
Eccentricity: 0.1515979
inclination: 82.5908°
perigee height: 439 km
apogee height: 2876 km
right ascension of ascending node: 50.5724°
argument of perigee: 2.5983°
revolutions per day: 12.05146868
mean anomaly at epoch: 358.1916°
orbit number at epoch: 25954

The dashed part of the orbit path shows where the satellite is in the earth's shadow,  

DLR